Location: Unspecified
(0.0000°N, 0.0000°E)
Time: 00:13:29
(UTC+00:00)

CZ-3B DEB - Pass Details

Date: 22 February 2026
Orbit: 643 x 41817 km, 26.5° (Epoch: 5 March)

Event Time Altitude Azimuth Distance (km) Brightness Sun altitude
Rises 20:28:38 0° 329° (NNW) 3,786 ? -33.2°
Reaches altitude 10° 20:30:53 10° 345° (NNW) 3,405 ? -33.8°
Enters shadow 20:33:43 21° 8° (N) 3,409 ? -34.5°
Exits shadow 21:18:00 13° 95° (E) 16,401 ? -45.3°
Maximum altitude 06:50:38 56° 157° (SSE) 27,180 ? 9.2°
Drops below altitude 10° 08:38:20 10° 98° (E) 8,459 ? 35.6°
Sets 08:42:13 0° 93° (E) 8,304 ? 36.6°
